Retour au catalogue

CENTISPACE-1 S14

ActifNavigationLEO
NORAD 62583·PAYLOAD·🇨🇳 China

Lancé Jan 13, 2025 depuis Yellow Sea Launch Area

Loading…

Prochains Passages (prochaines 24 heures)

TLE

FraisSource: Space-Track

Époque: Sep 14, 2026, 21:56 UTC

1 62583U 25007J   26257.91415309 -.00000054  00000-0  82012-4 0  9999
2 62583  54.9862 338.8301 0009076 268.0531  91.9386 13.80623098 87105

Suivez CENTISPACE-1 S14 en temps réel avec AllMySat

Download on the App Store